This is the latest recevied weather packets stored in our database for station/object IW8RUI-5. If no packets are shown the sender has not sent any weather packets the latest 10 day(s).
| Time | Temp. | Humidity | Pressure | Rain* | Wind** | Luminosity | Snow |
|---|---|---|---|---|---|---|---|
| 1777868365 | 5° C | 10% | 1013 hPa | 0 mm | - | - | - |
| 1777868065 | 5° C | 10% | 1013 hPa | 0 mm | - | - | - |
| 1777867765 | 5° C | 10% | 1013 hPa | 0 mm | - | - | - |
| 1777867465 | 5° C | 10% | 1013 hPa | 0 mm | - | - | - |
| 1777867165 | 5° C | 10% | 1013 hPa | 0 mm | - | - | - |
| 1777866565 | 5° C | 10% | 1013 hPa | 0 mm | - | - | - |
| 1777865665 | 5° C | 10% | 1013 hPa | 0 mm | - | - | - |
| 1777865365 | 5° C | 10% | 1013 hPa | 0 mm | - | - | - |
| 1777865065 | 5° C | 10% | 1013 hPa | 0 mm | - | - | - |
| 1777845266 | 5.56° C | 10% | 1013 hPa | 0 mm | - | - | - |
| 1777844665 | 5.56° C | 10% | 1014 hPa | 0 mm | - | - | - |
| 1777844365 | 5.56° C | 10% | 1014 hPa | 0 mm | - | - | - |
| 1777841965 | 5.56° C | 10% | 1013 hPa | 0 mm | - | - | - |
| 1777839265 | 5.56° C | 13% | 1013 hPa | 0 mm | - | - | - |
| 1777836865 | 6.11° C | 15% | 1013 hPa | 0 mm | - | - | - |
| 1777835365 | 6.67° C | 15% | 1013 hPa | 0 mm | - | - | - |
| 1777833265 | 7.22° C | 17% | 1013 hPa | 0 mm | - | - | - |
| 1777832365 | 7.78° C | 17% | 1013 hPa | 0 mm | - | - | - |
| 1777829065 | 12.78° C | 15% | 1013 hPa | 0 mm | - | - | - |
| 1777824265 | 14.44° C | 17% | 1013 hPa | 0 mm | - | - | - |
| 1777821865 | 13.33° C | 14% | 1013 hPa | 0 mm | - | - | - |
| 1777821565 | 13.33° C | 14% | 1013 hPa | 0 mm | - | - | - |
| 1777820365 | 12.22° C | 10% | 1013 hPa | 0 mm | - | - | - |
| 1777819165 | 11.11° C | 10% | 1013 hPa | 0 mm | - | - | - |
| 1777818565 | 11.67° C | 10% | 1013 hPa | 0 mm | - | - | - |
* Rain latest hour (hover to see other rain measurements)
** Current wind speed in m/s (hover to see current wind gust speed)